This is the latest recevied weather packets stored in our database for station/object C31FR-13. If no packets are shown the sender has not sent any weather packets the latest 10 day(s).
| Time | Temp. | Humidity | Pressure | Rain* | Wind** | Luminosity | Snow |
|---|---|---|---|---|---|---|---|
| 1777877462 | 11.67° C | 98% | 1014.3 hPa | - | - | - | - |
| 1777877163 | 11.67° C | 97% | 1014.3 hPa | - | - | - | - |
| 1777876563 | 11.67° C | 99% | 1014.4 hPa | - | - | - | - |
| 1777876263 | 11.67° C | 94% | 1014.4 hPa | - | - | - | - |
| 1777875963 | 11.67° C | 96% | 1014.3 hPa | - | - | - | - |
| 1777875662 | 11.11° C | 97% | 1014.3 hPa | - | - | - | - |
| 1777875362 | 11.11° C | 98% | 1014.3 hPa | - | - | - | - |
| 1777875062 | 11.11° C | 99% | 1014.2 hPa | - | - | - | - |
| 1777874763 | 11.11° C | 98% | 1014.3 hPa | - | - | - | - |
| 1777874462 | 11.11° C | 98% | 1014.3 hPa | - | - | - | - |
| 1777874162 | 11.11° C | 98% | 1014.2 hPa | - | - | - | - |
| 1777873863 | 11.11° C | 98% | 1014.2 hPa | - | - | - | - |
| 1777873564 | 11.11° C | 98% | 1014.2 hPa | - | - | - | - |
| 1777873262 | 11.11° C | 99% | 1014.1 hPa | - | - | - | - |
| 1777869663 | 11.11° C | 97% | 1013.8 hPa | - | - | - | - |
| 1777869363 | 11.11° C | 98% | 1013.8 hPa | - | - | - | - |
| 1777869063 | 11.11° C | 96% | 1013.8 hPa | - | - | - | - |
| 1777868762 | 11.67° C | 93% | 1013.9 hPa | - | - | - | - |
| 1777868462 | 11.67° C | 91% | 1013.9 hPa | - | - | - | - |
| 1777868163 | 12.22° C | 89% | 1013.8 hPa | - | - | - | - |
| 1777867863 | 11.67° C | 89% | 1013.8 hPa | - | - | - | - |
| 1777867563 | 12.22° C | 89% | 1013.8 hPa | - | - | - | - |
| 1777867263 | 12.22° C | 89% | 1013.8 hPa | - | - | - | - |
| 1777866962 | 11.67° C | 91% | 1013.9 hPa | - | - | - | - |
| 1777866362 | 12.22° C | 89% | 1013.8 hPa | - | - | - | - |
* Rain since midnight (hover to see other rain measurements)
** Current wind speed in m/s (hover to see current wind gust speed)